Regional Weather Roundup
Issued by NWS

Home | Current Version | Previous Version | Graphics & Text | Print | Product List | Glossary Off
Versions: 1 2 3 4 5 6 7 8 9 10 11 12 13 14 15 16 17 18 19 20 21 22 23 24 25 26 27 28 29 30 31 32 33 34 35 36 37 38 39 40 41 42 43 44 45 46 47 48 49 50

000
ASUS43 KDTX 251610
RWRMI
MICHIGAN HOURLY REGIONAL WEATHER ROUNDUP
NATIONAL WEATHER SERVICE DETROIT/PONTIAC MI
1200 PM EDT MON MAY 25 2015

NOTE: "FAIR" INDICATES FEW OR NO CLOUDS BELOW 12,000 FEET WITH NO
SIGNIFICANT WEATHER AND/OR OBSTRUCTION TO VISIBILITY.

MIZ047>049-052>055-059>063-066>070-074>076-081>083-251700-
SOUTHEAST LOWER MICHIGAN

CITY           SKY/WX    TMP DP  RH WIND       PRES   REMARKS
ADRIAN         CLOUDY    75  62  64 SW22G32   30.01R
ALMA           CLOUDY    74  65  74 S16       29.90F
ANN ARBOR      CLOUDY    74  63  68 SW21G30   29.99R
BAD AXE        CLOUDY    77  62  58 SW15G23   29.93F
CARO           CLOUDY    74  64  69 S14       29.93S
DETROIT CITY   CLOUDY    75  62  64 S15       29.99F
DETROIT        CLOUDY    78  62  57 S22G31    30.00S
FLINT          CLOUDY    77  63  61 S13       29.94F
GROSSE ILE     CLOUDY    72  63  73 S14G21    30.00S
HILLSDALE      CLOUDY    75  62  63 SW20G29   29.99S
HOWELL         CLOUDY    75  62  62 S14       29.96S

CITY           SKY/WX    TMP DP  RH WIND       PRES   REMARKS
JACKSON        PTSUNNY   75  62  64 SW15G30   29.97R
LAMBERTVILLE   CLOUDY    79  61  53 SW14G25   30.01S
LANSING        CLOUDY    75  62  64 S13       29.93F
LAPEER         FAIR      77  61  57 SW15      29.95F
MASON          CLOUDY    74  62  65 S9G17     29.95S
MONROE         CLOUDY    79  63  57 SW12G18   29.99S
MT. CLEMENS    CLOUDY    75  64  68 S17G24    29.96F
PONTIAC        CLOUDY    74  62  66 S16G24    29.97S
PORT HOPE        N/A     76  62  62 VRB5      29.91F
PORT HURON     CLOUDY    73  63  68 S8        29.98F
TRI CITIES     CLOUDY    77  63  61 SW15      29.91F
MIDLAND        CLOUDY    76  63  63 S9G17     29.88F
TROY           CLOUDY    77  62  58 SW16G24   30.00S
SAGINAW HB     CLOUDY    77  61  57 S17G25    29.91S
$$
MIZ043>046-050>051-056>058-064>065-071>073-077>080-251700-
SOUTHWEST LOWER MICHIGAN

CITY           SKY/WX    TMP DP  RH WIND       PRES   REMARKS
BATTLE CREEK   CLOUDY    75  63  66 SW21G28   29.95R
BENTON HARBOR  CLOUDY    75  65  70 S18G30    29.89S
BIG RAPIDS     CLOUDY    71  64  78 S13G24    29.86S
COLDWATER      CLOUDY    74  62  65 SW14G21   29.97R
FREMONT        CLOUDY    73  65  76 S18G29    29.85F
HOLLAND        PTSUNNY   77  64  64 SW21G37   29.88S
GRAND RAPIDS   CLOUDY    72  66  81 S16G24    29.90S
IONIA          HVY RAIN  71  65  79 SW24G33   29.92R
KALAMAZOO      PTSUNNY   78  63  59 S18G26    29.92S
LUDINGTON      CLOUDY    73  66  77 S23G33    29.81F
MOUNT PLEASANT CLOUDY    76  64  67 S12G20    29.87F
MUSKEGON       MOSUNNY   75  63  66 S26G35    29.86S
SOUTH HAVEN    CLOUDY    76  64  66 SW16G30   29.89S
$$
MIZ016>042-251700-
NORTHERN LOWER MICHIGAN

CITY           SKY/WX    TMP DP  RH WIND       PRES   REMARKS
ALPENA         LGT RAIN  63  60  90 SE5       29.88F
BEAVER ISLAND  CLOUDY    58  57  99 E6        29.80F FOG
BELLAIRE       CLOUDY    71  64  79 S8        29.82S
CADILLAC       CLOUDY    68  64  89 S10       29.85F
CHARLEVOIX     CLOUDY    68  67  96 S8        29.84F
FRANKFORT      CLOUDY    73  62  66 S20G30    29.79F
GAYLORD        CLOUDY    67  65  93 S13       29.86S
GRAYLING       CLOUDY    68  64  88 S6        29.87F
HARBOR SPRINGS CLOUDY    62  61  95 E6        29.83F FOG
HOUGHTON LAKE  CLOUDY    69  62  78 S8        29.88F
MANISTEE       CLOUDY    72  63  73 SW18G26   29.81F
OSCODA         CLOUDY    72  62  71 SW7       29.89F
PELLSTON       LGT RAIN  61  59  93 SE7       29.84F
ROGERS CITY    LGT RAIN  51  50  98 E3        29.88F
TRAVERSE CITY  CLOUDY    72  64  76 S6        29.80F
$$
MIZ007>008-015-251700-
EASTERN UPPER MICHIGAN

CITY           SKY/WX    TMP DP  RH WIND       PRES   REMARKS
KINROSS        CLOUDY    55  54  94 SE12      29.85F
MACKINAC ISLAN LGT RAIN  48  48 100 E8        29.84F
NEWBERRY       LGT RAIN  56  56  98 SE8       29.81F
S. S. MARIE    LGT RAIN  57  55  93 SE13      29.85F FOG
MUNISING         N/A     60  57  89 VRB5      29.75F
$$
MIZ004>006-011>014-085-251700-
CENTRAL UPPER MICHIGAN

CITY           SKY/WX    TMP DP  RH WIND       PRES   REMARKS
MANISTIQUE     LGT RAIN  55  53  95 E10G18    29.79S
ESCANABA       CLOUDY    52  48  87 SE10      29.74F
MENOMINEE      CLOUDY    59  55  88 SE8       29.71F
SAWYER-GWINN   CLOUDY    57  55  94 SE6       29.75F
$$
MIZ001>003-009>011-084-251700-
WESTERN UPPER MICHIGAN

CITY           SKY/WX    TMP DP  RH WIND       PRES   REMARKS
IRON MOUNTAIN  HVY RAIN  57  55  93 E7        29.71F VSB 1
HOUGHTON       LGT RAIN  50  49  96 E10       29.73F FOG
COPPER HARBOR    N/A     55  53  93 S9        29.76F
IRONWOOD       CLOUDY    59  57  94 E6        29.64F
$$

ABBREVIATIONS USED IN REMARKS
   TC - TEMPERATURE IN CELSIUS
  WCI - WIND CHILL INDEX
   HX - HEAT INDEX
  VSB - VISIBILITY




USA.gov is the U.S. government's official web portal to all federal, state and local government web resources and services.